Regional Weather Roundup
Issued by NWS

Home | Current Version | Previous Version | Text Only | Print | Product List | Glossary On
Versions: 1 2 3 4 5 6 7 8 9 10 11 12 13 14 15 16 17 18 19 20 21 22 23 24 25 26 27 28 29 30 31 32 33 34 35 36 37 38 39 40 41 42 43 44 45 46 47 48 49 50
000
ASUS43 KTOP 250159
RWRKS

WEATHER ROUNDUP FOR KANSAS
NATIONAL WEATHER SERVICE GOODLAND KS
900 PM CDT THU JUL 24 2014

NOTE:  "FAIR" INDICATES FEW OR NO CLOUDS BELOW 12,000 FEET WITH NO
SIGNIFICANT WEATHER AND/OR OBSTRUCTIONS TO VISIBILITY.

KSZ001>006-013>018-027>032-041>047-250300-
NORTHWEST KANSAS

CITY           SKY/WX    TMP DP  RH WIND       PRES   REMARKS
GOODLAND       CLOUDY    88  50  27 S13       29.91R
HAYS           MOCLDY    72  66  83 S17       29.89S
HILL CITY      CLOUDY    90  70  51 S15G24    29.85S HX  95
RUSSELL        PTCLDY    85  71  63 S16       29.89R
$$

KSZ061>065-074>080-084>089-250300-
SOUTHWEST KANSAS

CITY           SKY/WX    TMP DP  RH WIND       PRES   REMARKS
DODGE CITY     MOCLDY    87  63  44 SE13      29.94R
ELKHART          N/A     86  56  36 S12         N/A
GARDEN CITY    PTCLDY    84  57  39 S10       29.92R
GREAT BEND     PTCLDY    84  72  65 S15G21    29.90R
LIBERAL        CLEAR     90  52  27 S10       29.97R
PRATT          CLEAR     86  68  54 S15G21    29.95R
$$

KSZ066>073-081>083-090>101-250300-
SOUTHEAST KANSAS

CITY           SKY/WX    TMP DP  RH WIND       PRES   REMARKS
CHANUTE        CLEAR     77  67  71 SE5       30.00R
COFFEYVILLE    CLEAR     81  71  71 SE5       29.98R
HUTCHINSON     PTCLDY    85  69  58 SE13      29.93R
MEDICINE LODGE   N/A     88  72  58 SE9       29.93R
NEWTON         CLEAR     82  64  54 S10       30.00R
PARSONS        CLEAR     77  68  73 CALM      30.00R
WICHITA INTL   PTCLDY    83  70  64 SE13      29.95R
WICHITA JABRA  CLEAR     83  70  64 SE9       29.96R
WINFIELD       CLEAR     83  71  67 SE8       29.97R
$$

KSZ007>012-019>026-033>040-048>060-102>105-250300-
NORTHEAST KANSAS

CITY           SKY/WX    TMP DP  RH WIND       PRES   REMARKS
CONCORDIA      CLEAR     83  68  60 SE14G23   29.91R
EMPORIA        CLEAR     79  68  69 SE10      29.97F
LAWRENCE       CLEAR     74  62  66 SE9       29.99S
MANHATTAN      CLEAR     83  66  56 S9        29.94S
OLATHE IND     CLEAR     75  59  57 E5        30.02S
OLATHE EXE     CLEAR     74  60  61 E7        30.02R
SALINA         PTCLDY    87  67  51 S16       29.91S
TOPEKA BILLARD CLEAR     80  63  55 SE10      29.98S
TOPEKA FORBES  CLEAR     79  62  56 SE9       29.98S
$$


USA.gov is the U.S. government's official web portal to all federal, state and local government web resources and services.